Weather History for Kaiser, MO

Change the Weather History Date:

Monday, October 8, 2012

  Actual Average Record
Temperature  
Mean Temperature 44 °F -  
Max Temperature 60 °F 68 °F 82 °F (2010)
Min Temperature 28 °F 46 °F 28 °F (2000)
Degree Days  
Heating Degree Days 21    
Moisture  
Dew Point 31 °F    
Average Humidity 64    
Maximum Humidity 93    
Minimum Humidity 31    
Precipitation  
Precipitation 0.00 in - - ()
Sea Level Pressure  
Sea Level Pressure 30.16 in    
Wind  
Wind Speed 3 mph (SSW)    
Max Wind Speed 15 mph    
Max Gust Speed 23 mph    
Visibility 10 miles    
Events      
Averages and records for this station are not official NWS values.
T = Trace of Precipitation, MM = Missing Value Source: NWS Daily Summary

Daily Weather History Graph

Daily Weather History Graph

Search for Another Location

Airport:

Trip Planner

Search our weather history database for the weather conditions in past years. The results will help you decide how hot, cold, wet, or windy it might be!

Date:

Astronomy

Oct. 08, 2012 Rise Set
Actual Time 7:12 AM CDT 6:41 PM CDT
Civil Twilight 6:46 AM CDT 7:08 PM CDT
Nautical Twilight 6:15 AM CDT 7:38 PM CDT
Astronomical Twilight 5:45 AM CDT 8:09 PM CDT
Moon No Moon Rise 2:25 PM CDT (10/8)
Length of Visible Light 12h 21m
Length of Day
11h 29m
Last Quarter, 46% of the Moon is Illuminated
Oct 8
Last Quarter
Oct 15
New
Oct 21
First Quarter
Oct 29
Full
Nov 6
Last Quarter

Hourly Weather History & Observations

Time (CDT) Temp. Windchill Dew Point Humidity Pressure Visibility Wind Dir Wind Speed Gust Speed Precip Events Conditions
12:15 AM 33.8 °F - 30.2 °F 87% 30.20 in 10.0 mi Calm Calm - N/A   Clear
12:35 AM 33.8 °F - 30.2 °F 87% 30.20 in 10.0 mi Calm Calm - N/A   Clear
12:55 AM 33.8 °F - 30.2 °F 87% 30.21 in 10.0 mi Calm Calm - N/A   Clear
1:15 AM 33.8 °F - 30.2 °F 87% 30.20 in 10.0 mi Calm Calm - N/A   Clear
1:35 AM 33.8 °F - 28.4 °F 81% 30.20 in 10.0 mi Calm Calm - N/A   Clear
1:55 AM 32.0 °F - 26.6 °F 80% 30.21 in 10.0 mi Calm Calm - N/A   Clear
2:15 AM 33.8 °F - 28.4 °F 81% 30.21 in 10.0 mi Calm Calm - N/A   Clear
2:35 AM 32.0 °F - 28.4 °F 87% 30.21 in 10.0 mi Calm Calm - N/A   Clear
2:55 AM 32.0 °F - 28.4 °F 87% 30.20 in 10.0 mi Calm Calm - N/A   Clear
3:15 AM 32.0 °F - 28.4 °F 87% 30.21 in 10.0 mi Calm Calm - N/A   Clear
3:35 AM 30.2 °F - 28.4 °F 93% 30.21 in 10.0 mi Calm Calm - N/A   Clear
3:55 AM 30.2 °F - 28.4 °F 93% 30.21 in 10.0 mi Calm Calm - N/A   Clear
4:15 AM 30.2 °F - 28.4 °F 93% 30.21 in 10.0 mi Calm Calm - N/A   Clear
4:35 AM 30.2 °F - 26.6 °F 86% 30.21 in 10.0 mi Calm Calm - N/A   Clear
4:55 AM 30.2 °F - 26.6 °F 86% 30.21 in 10.0 mi Calm Calm - N/A   Clear
5:15 AM 30.2 °F - 26.6 °F 86% 30.21 in 10.0 mi Calm Calm - N/A   Clear
5:35 AM 30.2 °F - 26.6 °F 86% 30.21 in 10.0 mi Calm Calm - N/A   Clear
5:55 AM 30.2 °F - 26.6 °F 86% 30.21 in 10.0 mi Calm Calm - N/A   Clear
6:15 AM 28.4 °F - 26.6 °F 93% 30.21 in 10.0 mi Calm Calm - N/A   Clear
6:35 AM 30.2 °F - 26.6 °F 86% 30.21 in 10.0 mi Calm Calm - N/A   Clear
6:55 AM 30.2 °F - 26.6 °F 86% 30.21 in 10.0 mi Calm Calm - N/A   Clear
7:15 AM 30.2 °F - 26.6 °F 86% 30.22 in 1.2 mi Calm Calm - N/A   Clear
7:35 AM 30.2 °F - 26.6 °F 86% 30.22 in 10.0 mi Calm Calm - N/A   Clear
7:55 AM 30.2 °F - 26.6 °F 86% 30.22 in 10.0 mi Calm Calm - N/A   Clear
8:15 AM 33.8 °F - 28.4 °F 81% 30.23 in 0.5 mi Calm Calm - N/A   Unknown
8:35 AM 35.6 °F 32.8 °F 30.2 °F 81% 30.23 in 10.0 mi South 3.5 mph - N/A   Clear
8:55 AM 37.4 °F 33.8 °F 32.0 °F 81% 30.23 in 10.0 mi South 4.6 mph - N/A   Clear
9:15 AM 39.2 °F 35.9 °F 33.8 °F 81% 30.23 in 10.0 mi South 4.6 mph - N/A   Clear
9:35 AM 42.8 °F 38.6 °F 35.6 °F 76% 30.23 in 10.0 mi SSW 6.9 mph - N/A   Clear
9:55 AM 44.6 °F 41.4 °F 35.6 °F 71% 30.22 in 10.0 mi SW 5.8 mph - N/A   Clear
10:15 AM 46.4 °F 43.5 °F 33.8 °F 62% 30.22 in 10.0 mi SSW 5.8 mph - N/A   Clear
10:35 AM 48.2 °F - 35.6 °F 62% 30.22 in 10.0 mi South 5.8 mph - N/A   Clear
10:55 AM 51.8 °F - 33.8 °F 50% 30.21 in 10.0 mi SSW 8.1 mph - N/A   Clear
11:15 AM 51.8 °F - 33.8 °F 50% 30.21 in 10.0 mi WSW 8.1 mph - N/A   Clear
11:35 AM 53.6 °F - 32.0 °F 44% 30.21 in 10.0 mi WSW 9.2 mph - N/A   Clear
11:55 AM 53.6 °F - 30.2 °F 41% 30.20 in 10.0 mi SW 6.9 mph - N/A   Clear
12:15 PM 55.4 °F - 32.0 °F 41% 30.19 in 10.0 mi SW 6.9 mph - N/A   Clear
12:35 PM 55.4 °F - 30.2 °F 38% 30.19 in 10.0 mi SW 9.2 mph - N/A   Clear
12:55 PM 57.2 °F - 30.2 °F 36% 30.18 in 10.0 mi SSW 8.1 mph 17.3 mph N/A   Clear
1:15 PM 57.2 °F - 30.2 °F 36% 30.17 in 10.0 mi South 9.2 mph 16.1 mph N/A   Clear
1:35 PM 57.2 °F - 30.2 °F 36% 30.16 in 10.0 mi SSW 8.1 mph 16.1 mph N/A   Clear
1:55 PM 57.2 °F - 33.8 °F 41% 30.15 in 10.0 mi SW 15.0 mph 18.4 mph N/A   Clear
2:15 PM 57.2 °F - 30.2 °F 36% 30.14 in 10.0 mi South 11.5 mph 23.0 mph N/A   Clear
2:35 PM 59.0 °F - 30.2 °F 34% 30.13 in 10.0 mi SW 13.8 mph - N/A   Clear
2:55 PM 59.0 °F - 32.0 °F 36% 30.12 in 10.0 mi SW 10.4 mph - N/A   Clear
3:15 PM 60.8 °F - 32.0 °F 34% 30.11 in 10.0 mi WSW 9.2 mph 20.7 mph N/A   Clear
3:35 PM 60.8 °F - 32.0 °F 34% 30.10 in 10.0 mi SSW 10.4 mph - N/A   Clear
3:55 PM 60.8 °F - 32.0 °F 34% 30.10 in 10.0 mi SW 10.4 mph 17.3 mph N/A   Clear
4:15 PM 60.8 °F - 30.2 °F 31% 30.09 in 10.0 mi WSW 10.4 mph - N/A   Clear
4:35 PM 60.8 °F - 32.0 °F 34% 30.08 in 10.0 mi SW 12.7 mph 17.3 mph N/A   Clear
4:55 PM 60.8 °F - 32.0 °F 34% 30.08 in 10.0 mi SW 11.5 mph - N/A   Clear
5:15 PM 60.8 °F - 30.2 °F 31% 30.07 in 10.0 mi South 9.2 mph - N/A   Clear
5:35 PM 59.0 °F - 32.0 °F 36% 30.07 in 10.0 mi SW 13.8 mph - N/A   Clear
5:55 PM 57.2 °F - 32.0 °F 38% 30.07 in 10.0 mi SW 9.2 mph - N/A   Clear
6:15 PM 57.2 °F - 32.0 °F 38% 30.07 in 10.0 mi SSW 8.1 mph - N/A   Clear
6:35 PM 55.4 °F - 32.0 °F 41% 30.06 in 10.0 mi SSW 6.9 mph - N/A   Clear
6:55 PM 53.6 °F - 33.8 °F 47% 30.06 in 10.0 mi Calm Calm - N/A   Clear
7:15 PM 51.8 °F - 33.8 °F 50% 30.06 in 10.0 mi South 4.6 mph - N/A   Clear
7:35 PM 51.8 °F - 33.8 °F 50% 30.07 in 10.0 mi South 4.6 mph - N/A   Clear
8:35 PM 48.2 °F - 35.6 °F 62% 30.07 in 10.0 mi South 5.8 mph - N/A   Clear
8:55 PM 48.2 °F - 35.6 °F 62% 30.08 in 10.0 mi South 5.8 mph - N/A   Clear
9:15 PM 46.4 °F 44.3 °F 35.6 °F 66% 30.08 in 10.0 mi South 4.6 mph - N/A   Clear
9:35 PM 46.4 °F 43.5 °F 35.6 °F 66% 30.08 in 10.0 mi South 5.8 mph - N/A   Clear
9:55 PM 46.4 °F 43.5 °F 35.6 °F 66% 30.08 in 10.0 mi South 5.8 mph - N/A   Clear
10:15 PM 46.4 °F 42.9 °F 35.6 °F 66% 30.08 in 10.0 mi South 6.9 mph - N/A   Clear
10:55 PM 44.6 °F 41.4 °F 35.6 °F 71% 30.08 in 10.0 mi SSE 5.8 mph - N/A   Clear
11:15 PM 44.6 °F 40.7 °F 35.6 °F 71% 30.08 in 10.0 mi SSE 6.9 mph - N/A   Clear
11:35 PM 44.6 °F 42.2 °F 35.6 °F 71% 30.08 in 10.0 mi South 4.6 mph - N/A   Clear
11:55 PM 44.6 °F 41.4 °F 35.6 °F 71% 30.08 in 10.0 mi South 5.8 mph - N/A   Clear